CW9443 Weather Reports


Display with metric or nautical units.
time (UTC)temp
F
wind
direction
speed
MPH
gust
MPH
rain 1hr
in
rain 24hr
in
rain mn
in
humidity
%
barometer
mb
20260509214648 74 211 0.0 0.0 0.00 0.00 0.00 62 1011.3
20260509213055 74 209 1.0 0.0 0.00 0.00 0.00 62 1011.3
20260509211543 73 207 2.0 0.0 0.00 0.00 0.00 64 1011.5
20260509210058 74 248 1.0 0.0 0.00 0.00 0.00 63 1011.6
20260509204640 74 214 1.0 0.0 0.00 0.00 0.00 63 1011.7
20260509203047 73 214 2.0 0.0 0.00 0.00 0.00 63 1011.8
20260509201546 73 224 1.0 0.0 0.00 0.00 0.00 66 1011.8
20260509200046 73 215 1.0 0.0 0.00 0.00 0.00 65 1011.8
20260509194642 71 236 2.0 0.0 0.00 0.00 0.00 68 1012.0
20260509193046 71 237 2.0 0.0 0.00 0.00 0.00 68 1012.1
20260509191545 71 213 1.0 0.0 0.00 0.00 0.00 69 1012.3
20260509190045 70 210 1.0 0.0 0.00 0.00 0.00 71 1012.3
20260509184640 67 205 1.0 0.0 0.00 0.00 0.00 75 1012.5
20260509183051 67 203 1.0 0.0 0.00 0.00 0.00 75 1012.5
20260509181557 66 203 0.0 0.0 0.00 0.00 0.00 77 1012.7
20260509180047 64 202 1.0 0.0 0.00 0.00 0.00 80 1012.8
20260509174645 63 200 0.0 0.0 0.00 0.00 0.00 82 1012.8
20260509173050 63 200 0.0 0.0 0.00 0.00 0.00 83 1012.8
20260509171551 62 198 0.0 0.0 0.00 0.00 0.00 83 1012.8
20260509170051 62 195 0.0 0.0 0.00 0.00 0.00 86 1012.6
20260509164646 58 190 0.0 0.0 0.00 0.00 0.00 94 1012.7
20260509163027 58 190 0.0 0.0 0.00 0.00 0.00 94 1012.7
20260509161524 57 190 0.0 0.0 0.00 0.00 0.00 94 1012.7
20260509160020 56 190 0.0 0.0 0.00 0.00 0.00 95 1012.6
20260509154618 56 190 0.0 0.0 0.00 0.00 0.00 95 1012.7
20260509153016 55 190 0.0 0.0 0.00 0.00 0.00 95 1012.7
20260509151516 55 190 0.0 0.0 0.00 0.00 0.00 95 1012.7
20260509150013 54 189 0.0 0.0 0.00 0.00 0.00 95 1012.5
20260509144612 54 188 0.0 0.0 0.00 0.00 0.00 95 1012.5
20260509143020 54 189 0.0 0.0 0.00 0.00 0.00 95 1012.5
20260509141519 54 189 0.0 0.0 0.00 0.00 0.00 94 1012.5
20260509140018 53 189 0.0 0.0 0.00 0.00 0.00 95 1012.5
20260509134618 53 189 0.0 0.0 0.00 0.00 0.00 94 1012.3
20260509133025 53 189 0.0 0.0 0.00 0.00 0.00 94 1012.3
20260509131532 54 189 0.0 0.0 0.00 0.00 0.00 94 1012.1
20260509130024 53 188 0.0 0.0 0.00 0.00 0.00 94 1012.0
20260509124628 53 215 0.0 0.0 0.00 0.00 0.00 94 1011.8
20260509123039 53 215 0.0 0.0 0.00 0.00 0.00 94 1011.8
20260509121541 53 215 0.0 0.0 0.00 0.00 0.00 94 1011.8
20260509120048 53 215 0.0 0.0 0.00 0.00 0.00 94 1011.8
20260509114637 52 215 0.0 0.0 0.00 0.00 0.00 94 1011.9
20260509113018 52 215 0.0 0.0 0.00 0.00 0.00 94 1011.9
20260509111518 53 215 0.0 0.0 0.00 0.00 0.00 94 1011.9
20260509110018 53 215 0.0 0.0 0.00 0.00 0.00 94 1011.8
20260509104616 52 215 0.0 0.0 0.00 0.00 0.00 93 1012.0
20260509103017 52 215 0.0 0.0 0.00 0.00 0.00 93 1012.0
20260509101516 53 215 0.0 0.0 0.00 0.00 0.00 92 1011.9
20260509100015 53 215 0.0 0.0 0.00 0.00 0.00 93 1012.0
20260509094614 54 215 0.0 0.0 0.00 0.00 0.00 92 1012.1
20260509093017 54 215 0.0 0.0 0.00 0.00 0.00 92 1012.0
20260509091518 54 215 0.0 0.0 0.00 0.00 0.00 93 1012.0
20260509090014 54 215 0.0 0.0 0.00 0.00 0.00 92 1012.1
20260509084611 54 215 0.0 0.0 0.00 0.00 0.00 92 1012.3
20260509083018 54 215 0.0 0.0 0.00 0.00 0.00 92 1012.3
20260509081517 54 215 0.0 0.0 0.00 0.00 0.00 91 1012.5
20260509080014 54 215 0.0 0.0 0.00 0.00 0.00 92 1012.6
20260509074615 55 215 0.0 0.0 0.00 0.00 0.00 92 1012.7
20260509073040 55 215 0.0 0.0 0.00 0.00 0.00 92 1012.7
20260509071525 55 215 0.0 0.0 0.00 0.00 0.00 92 1012.7
20260509070026 55 215 0.0 0.0 0.00 0.00 0.00 92 1012.8
20260509064624 55 215 0.0 0.0 0.00 0.00 0.00 91 1012.8
20260509063038 55 215 0.0 0.0 0.00 0.00 0.00 90 1012.8
20260509061539 55 215 0.0 0.0 0.00 0.00 0.00 90 1012.9
20260509060047 56 215 0.0 0.0 0.00 0.00 0.00 89 1012.8
20260509054637 57 215 0.0 0.0 0.00 0.00 0.00 87 1012.9
20260509053014 57 215 0.0 0.0 0.00 0.00 0.00 87 1012.9
20260509051509 58 215 0.0 0.0 0.00 0.00 0.00 87 1012.9
20260509050009 58 215 0.0 0.0 0.00 0.00 0.00 86 1012.8
20260509044608 58 215 0.0 0.0 0.00 0.00 0.00 86 1012.6
20260509043022 58 215 0.0 0.0 0.00 0.00 0.00 86 1012.6
20260509041511 58 215 0.0 0.0 0.00 0.00 0.00 85 1012.4
20260509040011 58 215 0.0 0.0 0.00 0.00 0.00 85 1012.2
20260509034609 59 215 0.0 0.0 0.00 0.00 0.00 84 1012.3
20260509033012 59 215 0.0 0.0 0.00 0.00 0.00 84 1012.2
20260509031515 59 215 0.0 0.0 0.00 0.00 0.00 83 1012.1
20260509030011 60 215 0.0 0.0 0.00 0.00 0.00 82 1012.1
20260509024610 61 215 0.0 0.0 0.00 0.00 0.00 80 1011.8
20260509023015 61 215 0.0 0.0 0.00 0.00 0.00 80 1011.8
20260509021514 62 215 0.0 0.0 0.00 0.00 0.00 79 1011.7
20260509020015 62 215 0.0 0.0 0.00 0.00 0.00 78 1011.7
20260509014614 63 215 0.0 0.0 0.00 0.00 0.00 76 1011.8
20260509013018 63 215 0.0 0.0 0.00 0.00 0.00 76 1011.8
20260509011515 65 218 0.0 0.0 0.00 0.00 0.00 74 1011.7
20260509010020 66 214 0.0 0.0 0.00 0.00 0.00 72 1011.7
20260509004614 67 207 0.0 0.0 0.00 0.00 0.00 71 1011.8
20260509003042 67 207 0.0 0.0 0.00 0.00 0.00 70 1011.8
20260509001541 67 211 0.0 0.0 0.00 0.00 0.00 70 1011.7
20260509000040 68 211 0.0 0.0 0.00 0.00 0.00 70 1011.9
20260508234639 70 209 0.0 0.0 0.00 0.00 0.00 66 1012.1
20260508233017 70 209 0.0 0.0 0.00 0.00 0.00 67 1012.2
20260508231516 70 240 1.0 0.0 0.00 0.00 0.00 66 1012.2
20260508230019 71 249 0.0 0.0 0.00 0.00 0.00 65 1012.3
20260508224613 71 207 1.0 0.0 0.00 0.00 0.00 65 1012.6
20260508223035 71 200 1.0 0.0 0.00 0.00 0.00 65 1012.7
20260508221521 71 232 2.0 0.0 0.00 0.00 0.00 65 1012.7
20260508220021 71 209 1.0 0.0 0.00 0.00 0.00 65 1012.9